Regional Weather Roundup
Issued by NWS

Home | Current Version | Previous Version | Graphics & Text | Print | Product List | Glossary On
Versions: 1 2 3 4 5 6 7 8 9 10 11 12 13 14 15 16 17 18 19 20 21 22 23 24 25 26 27 28 29 30 31 32 33 34 35 36 37 38 39 40 41 42 43 44 45 46 47 48 49 50
000
ASUS44 KMEG 271200
RWRTN
TENNESSEE HOURLY STATE WEATHER ROUNDUP
NATIONAL WEATHER SERVICE MEMPHIS TN
700 AM CDT MON APR 27 2015

TNZ002-004-019-021-049-052-054-088>092-271300-
WEST TENNESSEE

CITY           SKY/WX    TMP DP  RH WIND       PRES   REMARKS
MEMPHIS INTL   CLOUDY    52  42  69 NE9       29.98R
NWS MEMPHIS      N/A     50 N/A N/A MISG        N/A
JACKSON        MOCLDY    45  41  86 CALM      30.01R
DYERSBURG      CLOUDY    46  30  53 NE5       30.03R
UNION CITY     CLEAR     45  32  61 NE3       29.98R
PARIS          CLEAR     43  37  81 NE8       29.98S
LEXINGTON      CLEAR     43  39  87 CALM      29.98R
SAVANNAH       CLEAR     45  32  61 CALM      29.99R
$$

TNZ008-025-027-028-033-062-065-066-271300-
NORTH MIDDLE TENNESSEE

CITY           SKY/WX    TMP DP  RH WIND       PRES   REMARKS
NASHVILLE      PTSUNNY   46  40  79 N7        29.97R
CLARKSVILLE    MOSUNNY   45  39  79 N7        29.97R
COOKEVILLE     SUNNY     39  39 100 N3        29.94R
CROSSVILLE     SUNNY     43  36  76 N5        29.94R
$$

TNZ061-075-076-078-094-096-097-271300-
SOUTH MIDDLE TENNESSEE

CITY           SKY/WX    TMP DP  RH WIND       PRES   REMARKS
FAYETTEVILLE   SUNNY     43  43 100 N5        29.94R
TULLAHOMA      SUNNY     45  39  81 CALM      29.94R
WINCHESTER     CLOUDY    43  43 100 CALM      29.95R VSB 0
MCMINNVILLE    SUNNY     43  43 100 NE6       29.94R
COLUMBIA       SUNNY     41  32  70 CALM      29.94R
SHELBYVILLE    SUNNY     43  43 100 CALM      29.95R
$$

TNZ017-018-042-046-047-271300-
NORTHEAST TENNESSEE

CITY           SKY/WX    TMP DP  RH WIND       PRES   REMARKS
TRI CITIES     MOSUNNY   43  40  89 CALM      29.91R
ELIZABETHTON   PTSUNNY   41  39  93 CALM      29.90R
$$

TNZ012-013-036-069-073-074-271300-
CENTRAL EAST TENNESSEE

CITY           SKY/WX    TMP DP  RH WIND       PRES   REMARKS
KNOXVILLE      MOSUNNY   48  39  71 N9        29.91R
OAK RIDGE      SUNNY     45  41  86 CALM      29.94R
GATLINBURG     MOSUNNY   48  39  71 W3        29.91R
$$

TNZ083-085-099-271300-
SOUTHEAST TENNESSEE

CITY           SKY/WX    TMP DP  RH WIND       PRES   REMARKS
CHATTANOOGA    MOSUNNY   48  46  93 CALM      29.92R
$$

SKY/WX REPORTED AS FAIR MEANS FEW OR NO CLOUDS BELOW
12 THOUSAND FEET.



USA.gov is the U.S. government's official web portal to all federal, state and local government web resources and services.